Find Starlink 11294

NORAD ID: 61054 Int'l Des: 2024-164 Owner: SPXS Country: US Constellation: starlink operational
別名: STARLINK-11294 [DTC] celestrak
LEOCIRCULAR

現在のビュー

3D地球を読み込み中...

About Starlink 11294

Starlink 11294 (NORAD 61054) is a starlink constellation satellite (v2 mini d2c) launched Sep 13, 2024 by SPXS of US. It operates in LEO, CIRCULAR orbit with a mass of 960.00 kg.

次回通過

Passes for default location (London). Set your location on the main map for personalized predictions.

高度履歴

Loading altitude history...

軌道要素

1 61054U 24164E 26237.93496942 -.00006009 00000-0 -44836-4 0 9995
2 61054 53.1599 196.7412 0001776 85.5334 274.5887 15.69671896112002
Epoch: Aug 25, 2026 • Age: 9 hours

現在のステータス

高度 359.7 km
遠地点 / 近地点 N/A
速度 7.70 km/s
衛星直下点 18.44°N, 119.05°E
打ち上げ日 Sep 13, 2024
運用期間 1.9 years
タイプ internet

技術仕様

分類 Payload
質量 960.00 kg
乾燥質量 910.00 kg
総質量 960.00 kg
長さ 0.30 m
直径 4.10 m
スパン 29.00 m
形状 Box + pan
製造者 SPXS
バスタイプ Starlink V2MD
フェーズステータス In Orbit
所有者/国 SPXS/US

Most Searched